Weather History for Grand Canyon, AZ

Change the Weather History Date:

Tuesday, October 23, 2012

  Actual Average Record
Temperature  
Mean Temperature 53 °F -  
Max Temperature 63 °F 57 °F 75 °F (2003)
Min Temperature 43 °F 26 °F 12 °F (1996)
Degree Days  
Heating Degree Days 12    
Growing Degree Days 3 (Base 50)    
Moisture  
Dew Point 36 °F    
Average Humidity 60    
Maximum Humidity 90    
Minimum Humidity 25    
Precipitation  
Precipitation 0.00 in - - ()
Sea Level Pressure  
Sea Level Pressure 29.86 in    
Wind  
Wind Speed 13 mph (SW)    
Max Wind Speed 24 mph    
Max Gust Speed 36 mph    
Visibility 10 miles    
Events      
Averages and records for this station are not official NWS values.
T = Trace of Precipitation, MM = Missing Value Source: NWS Daily Summary

Daily Weather History Graph

Daily Weather History Graph

Search for Another Location

Airport:

Trip Planner

Search our weather history database for the weather conditions in past years. The results will help you decide how hot, cold, wet, or windy it might be!

Date:

Astronomy

Oct. 23, 2012 Rise Set
Actual Time 6:43 AM MST 5:42 PM MST
Civil Twilight 6:16 AM MST 6:08 PM MST
Nautical Twilight 5:46 AM MST 6:38 PM MST
Astronomical Twilight 5:17 AM MST 7:07 PM MST
Moon 2:18 PM MST (10/23) 12:50 AM MST (10/23)
Length of Visible Light 11h 51m
Length of Day
10h 59m
Waxing Gibbous, 67% of the Moon is Illuminated
Oct 23
Waxing Gibbous
Oct 29
Full
Nov 6
Last Quarter
Nov 13
New
Nov 20
First Quarter

Hourly Weather History & Observations

Time (MST) Temp. Windchill Dew Point Humidity Pressure Visibility Wind Dir Wind Speed Gust Speed Precip Events Conditions
12:54 AM 46.9 °F - 41.0 °F 80% 29.82 in 10.0 mi SSW 10.4 mph - N/A   Scattered Clouds
1:11 AM 48.2 °F - 42.8 °F 82% 30.02 in 10.0 mi SSW 11.5 mph - N/A   Mostly Cloudy
1:54 AM 48.0 °F - 42.1 °F 80% 29.82 in 10.0 mi SW 16.1 mph 20.7 mph N/A   Mostly Cloudy
2:49 AM 48.2 °F - 42.8 °F 82% 30.02 in 10.0 mi SSW 12.7 mph - N/A   Mostly Cloudy
2:54 AM 48.0 °F - 42.1 °F 80% 29.81 in 10.0 mi SSW 13.8 mph - N/A   Mostly Cloudy
3:21 AM 48.2 °F - 42.8 °F 82% 30.03 in 10.0 mi SW 8.1 mph - N/A   Overcast
3:54 AM 46.9 °F - 42.1 °F 83% 29.82 in 10.0 mi SSW 12.7 mph - N/A   Overcast
4:54 AM 46.9 °F - 42.1 °F 83% 29.82 in 10.0 mi SSW 12.7 mph - N/A   Mostly Cloudy
5:54 AM 45.0 °F 40.1 °F 42.1 °F 90% 29.87 in 10.0 mi SSW 9.2 mph - N/A   Scattered Clouds
6:54 AM 43.0 °F 40.3 °F 39.9 °F 89% 29.89 in 9.0 mi SW 4.6 mph - N/A   Clear
7:54 AM 48.0 °F - 41.0 °F 77% 29.89 in 10.0 mi SSW 11.5 mph 19.6 mph N/A   Clear
8:54 AM 51.1 °F - 39.9 °F 66% 29.90 in 10.0 mi SSW 16.1 mph 24.2 mph N/A   Partly Cloudy
9:54 AM 54.0 °F - 36.0 °F 51% 29.88 in 10.0 mi SW 24.2 mph 29.9 mph N/A   Clear
10:54 AM 57.0 °F - 34.0 °F 42% 29.86 in 10.0 mi SW 18.4 mph 32.2 mph N/A   Clear
11:54 AM 59.0 °F - 32.0 °F 36% 29.85 in 10.0 mi SSW 24.2 mph 35.7 mph N/A   Clear
12:54 PM 60.1 °F - 32.0 °F 35% 29.82 in 10.0 mi SW 17.3 mph 35.7 mph N/A   Clear
1:54 PM 62.1 °F - 28.9 °F 29% 29.78 in 10.0 mi SW 20.7 mph 32.2 mph N/A   Clear
2:54 PM 63.0 °F - 28.9 °F 28% 29.76 in 10.0 mi SW 20.7 mph 29.9 mph N/A   Clear
3:54 PM 62.1 °F - 26.1 °F 25% 29.77 in 10.0 mi SW 18.4 mph 28.8 mph N/A   Clear
4:54 PM 60.1 °F - 26.1 °F 27% 29.78 in 10.0 mi SW 16.1 mph 31.1 mph N/A   Clear
5:54 PM 55.9 °F - 28.0 °F 34% 29.81 in 10.0 mi SW 17.3 mph 24.2 mph N/A   Clear
6:54 PM 52.0 °F - 28.9 °F 41% 29.86 in 10.0 mi SW 13.8 mph - N/A   Clear
7:54 PM 48.9 °F - 30.0 °F 48% 29.86 in 10.0 mi SW 10.4 mph - N/A   Clear
8:54 PM 48.0 °F - 30.9 °F 52% 29.84 in 10.0 mi SW 11.5 mph - N/A   Clear
9:54 PM 45.0 °F 40.6 °F 30.9 °F 58% 29.86 in 10.0 mi SSW 8.1 mph - N/A   Clear
10:54 PM 44.1 °F 39.5 °F 33.1 °F 65% 29.84 in 10.0 mi SSW 8.1 mph - N/A   Clear
11:54 PM 45.0 °F 40.6 °F 35.1 °F 68% 29.82 in 10.0 mi SSW 8.1 mph - N/A   Clear